Marion, IN

10:07 AM EDT on August 24, 2016 (GMT -0400)
Marion Municipal

Weather History for KMZZ - January, 2014

Change the Weather History Date:

Wednesday, January 15, 2014

  Actual Average (KMIE) Record (KMIE)
Temperature  
Mean Temperature 23 °F 26 °F  
Max Temperature 78 °F 34 °F 51 °F (2007)
Min Temperature 18 °F 19 °F -12 °F (2009)
Degree Days  
Heating Degree Days 42 39  
Month to date heating degree days 576  
Since 1 July heating degree days 2774  
Cooling Degree Days 0 0  
Month to date cooling degree days 0  
Year to date cooling degree days 0  
Moisture  
Dew Point 15 °F    
Average Humidity 73    
Maximum Humidity 81    
Minimum Humidity 64    
Precipitation  
Precipitation 0.00 in 0.06 in 0.76 in (2007)
Month to date precipitation 1.10  
Year to date precipitation 1.10  
Sea Level Pressure  
Sea Level Pressure 30.01 in    
Wind  
Wind Speed 17 mph (West)    
Max Wind Speed 25 mph    
Max Gust Speed 36 mph    
Visibility 8 miles    
Events Snow    
T = Trace of Precipitation, MM = Missing Value Source: NWS Daily Summary

Daily Weather History Graph

Daily Weather History Graph

Search for Another Location

Airport or City:

Trip Planner

Search our weather history database for the weather conditions in past years. The results will help you decide how hot, cold, wet, or windy it might be!

Date:

Astronomy

Jan. 15, 2014 Rise Set
Actual Time 8:04 AM EST 5:40 PM EST
Civil Twilight 7:34 AM EST 6:10 PM EST
Nautical Twilight 7:00 AM EST 6:44 PM EST
Astronomical Twilight 6:27 AM EST 7:17 PM EST
Moon 5:38 PM EST (1/15) 7:19 AM EST (1/15)
Length of Visible Light 10h 36m
Length of Day
9h 36m
Full, 100% of the Moon is Illuminated
Jan 15
Full
Jan 15
Full
Jan 24
Last Quarter
Jan 30
New
Feb 6
First Quarter

Hourly Weather History & Observations

Time (EST) Temp. Windchill Dew Point Humidity Pressure Visibility Wind Dir Wind Speed Gust Speed Precip Events Conditions
12:15 AM 27.3 °F 13.3 °F 18.3 °F 69% 29.89 in 7.0 mi West 21.9 mph 32.2 mph N/A   Overcast
12:35 AM 27.1 °F 12.1 °F 16.9 °F 65% 29.89 in 10.0 mi West 25.3 mph 35.7 mph N/A   Overcast
12:55 AM 27.0 °F 12.5 °F 16.3 °F 64% 29.89 in 10.0 mi West 23.0 mph 28.8 mph N/A   Overcast
1:15 AM 26.6 °F 12.4 °F 17.1 °F 67% 29.89 in 10.0 mi WNW 21.9 mph 28.8 mph N/A   Overcast
1:35 AM 26.1 °F 12.0 °F 17.6 °F 70% 29.89 in 7.0 mi West 20.7 mph 26.5 mph N/A   Overcast
1:55 AM 25.9 °F 10.7 °F 18.1 °F 73% 29.89 in 7.0 mi West 24.2 mph 31.1 mph N/A Snow Light Snow
2:15 AM 25.7 °F 11.2 °F 17.6 °F 71% 29.89 in 10.0 mi West 21.9 mph 29.9 mph N/A   Overcast
2:35 AM 25.7 °F 12.7 °F 16.9 °F 69% 29.90 in 5.0 mi West 17.3 mph - N/A Snow Light Snow
2:55 AM 25.5 °F 10.6 °F 18.0 °F 73% 29.91 in 10.0 mi West 23.0 mph 26.5 mph N/A Snow Light Snow
3:15 AM 25.0 °F 10.2 °F 18.0 °F 75% 29.92 in 5.0 mi WNW 21.9 mph 27.6 mph N/A Snow Light Snow
3:35 AM 23.9 °F 9.1 °F 17.2 °F 76% 29.93 in 7.0 mi WNW 20.7 mph 24.2 mph N/A   Overcast
3:55 AM 23.9 °F 10.3 °F 15.8 °F 71% 29.93 in 10.0 mi West 17.3 mph 20.7 mph N/A Snow Light Snow
4:15 AM 23.7 °F 12.1 °F 16.2 °F 73% 29.94 in 10.0 mi West 12.7 mph 19.6 mph N/A Snow Light Snow
4:35 AM 23.5 °F 10.8 °F 16.7 °F 75% 29.94 in 5.0 mi West 15.0 mph - N/A Snow Light Snow
4:55 AM 23.2 °F 9.8 °F 17.1 °F 77% 29.94 in 7.0 mi West 16.1 mph - N/A Snow Light Snow
5:15 AM 23.0 °F 11.1 °F 17.2 °F 79% 29.94 in 10.0 mi WNW 12.7 mph - N/A   Overcast
5:35 AM 23.2 °F 9.0 °F 17.1 °F 77% 29.95 in 10.0 mi West 18.4 mph 21.9 mph N/A Snow Light Snow
5:55 AM 23.0 °F 9.6 °F 16.7 °F 77% 29.96 in 7.0 mi West 16.1 mph - N/A Snow Light Snow
6:15 AM 23.0 °F 9.6 °F 16.5 °F 76% 29.96 in 5.0 mi West 16.1 mph 24.2 mph N/A Snow Light Snow
6:35 AM 22.8 °F 8.5 °F 16.0 °F 75% 29.96 in 5.0 mi WNW 18.4 mph - N/A   Haze
6:55 AM 22.6 °F 10.7 °F 15.6 °F 74% 29.97 in 10.0 mi WNW 12.7 mph - N/A   Overcast
7:15 AM 22.1 °F 8.9 °F 16.3 °F 79% 29.98 in 10.0 mi WNW 15.0 mph - N/A   Overcast
7:35 AM 21.7 °F 8.0 °F 15.6 °F 77% 29.99 in 10.0 mi West 16.1 mph - N/A Snow Light Snow
7:55 AM 21.9 °F 9.2 °F 15.1 °F 75% 29.99 in 10.0 mi West 13.8 mph - N/A   Overcast
8:15 AM 21.9 °F 9.8 °F 14.7 °F 74% 30.00 in 4.0 mi West 12.7 mph - N/A Snow Light Snow
8:35 AM 21.6 °F 9.3 °F 16.5 °F 81% 30.01 in 7.0 mi WNW 12.7 mph - N/A Snow Light Snow
8:55 AM 21.4 °F 8.0 °F 16.0 °F 80% 30.02 in 10.0 mi WNW 15.0 mph 18.4 mph N/A   Overcast
9:15 AM 21.4 °F 8.5 °F 15.4 °F 78% 30.03 in 7.0 mi WNW 13.8 mph - N/A   Overcast
9:35 AM 21.4 °F 9.1 °F 14.9 °F 76% 30.04 in 5.0 mi WNW 12.7 mph 17.3 mph N/A Snow Light Snow
9:55 AM 21.2 °F 10.1 °F 14.9 °F 77% 30.05 in 5.0 mi WNW 10.4 mph - N/A   Haze
10:15 AM 21.0 °F 8.6 °F 14.7 °F 77% 30.06 in 7.0 mi WNW 12.7 mph 17.3 mph N/A Snow Light Snow
10:35 AM 21.4 °F 8.0 °F 13.5 °F 72% 30.06 in 10.0 mi WNW 15.0 mph - N/A   Scattered Clouds
10:55 AM 21.7 °F 9.0 °F 13.3 °F 70% 30.06 in 10.0 mi West 13.8 mph - N/A   Scattered Clouds
11:15 AM 23.0 °F 11.1 °F 14.2 °F 69% 30.06 in 5.0 mi WNW 12.7 mph 19.6 mph N/A   Haze
11:35 AM 22.5 °F 9.4 °F 14.0 °F 70% 30.06 in 10.0 mi WNW 15.0 mph - N/A   Overcast
11:55 AM 22.1 °F 9.5 °F 13.3 °F 69% 30.06 in 10.0 mi WNW 13.8 mph - N/A   Overcast
12:15 PM 22.6 °F 10.7 °F 13.8 °F 69% 30.05 in 10.0 mi WNW 12.7 mph - N/A   Overcast
12:35 PM 22.3 °F 11.5 °F 14.2 °F 71% 30.04 in 10.0 mi WNW 10.4 mph - N/A   Overcast
12:55 PM 22.3 °F 9.2 °F 14.0 °F 71% 30.04 in 5.0 mi West 15.0 mph - N/A   Haze
1:15 PM 21.9 °F 9.2 °F 14.0 °F 72% 30.03 in 10.0 mi West 13.8 mph - N/A   Overcast
1:35 PM 21.7 °F 9.0 °F 14.2 °F 73% 30.03 in 10.0 mi West 13.8 mph - N/A Snow Light Snow
1:55 PM 21.7 °F 10.8 °F 13.8 °F 72% 30.03 in 10.0 mi West 10.4 mph - N/A   Overcast
2:15 PM 21.7 °F 10.2 °F 13.6 °F 71% 30.03 in 7.0 mi West 11.5 mph - N/A   Overcast
2:35 PM 21.7 °F 9.6 °F 13.5 °F 70% 30.04 in 10.0 mi West 12.7 mph - N/A   Overcast
2:55 PM 21.6 °F 11.3 °F 13.5 °F 71% 30.04 in 10.0 mi West 9.2 mph - N/A   Overcast
3:15 PM 21.7 °F 11.5 °F 13.1 °F 69% 30.04 in 7.0 mi West 9.2 mph - N/A Snow Light Snow
3:35 PM 21.7 °F 9.0 °F 12.9 °F 69% 30.05 in 5.0 mi WNW 13.8 mph 18.4 mph N/A Snow Light Snow
3:55 PM 21.6 °F 10.6 °F 12.9 °F 69% 30.05 in 7.0 mi West 10.4 mph - N/A Snow Light Snow
4:15 PM 21.2 °F 8.3 °F 13.3 °F 72% 30.05 in 2.5 mi West 13.8 mph - N/A Snow Light Snow
4:35 PM 20.8 °F 9.7 °F 13.8 °F 74% 30.06 in 10.0 mi West 10.4 mph - N/A Snow Light Snow
4:55 PM 21.0 °F 8.6 °F 13.6 °F 73% 30.07 in 7.0 mi West 12.7 mph - N/A Snow Light Snow
5:15 PM 20.8 °F 10.4 °F 13.6 °F 74% 30.07 in 5.0 mi West 9.2 mph - N/A Snow Light Snow
5:35 PM 20.7 °F 9.5 °F 13.6 °F 74% 30.07 in 5.0 mi West 10.4 mph - N/A Snow Light Snow
5:55 PM 20.7 °F 13.0 °F 13.8 °F 75% 30.06 in 7.0 mi West 5.8 mph - N/A Snow Light Snow
6:15 PM 20.7 °F 11.0 °F 13.6 °F 74% 30.06 in 5.0 mi WSW 8.1 mph - N/A Snow Light Snow
6:35 PM 20.5 °F 10.8 °F 13.3 °F 74% 30.06 in 10.0 mi WSW 8.1 mph - N/A Snow Light Snow
6:55 PM 20.5 °F 10.0 °F 12.9 °F 73% 30.06 in 7.0 mi WSW 9.2 mph - N/A Snow Light Snow
7:15 PM 20.7 °F 9.5 °F 12.0 °F 69% 30.06 in 10.0 mi WSW 10.4 mph - N/A Snow Light Snow
7:35 PM 20.7 °F 9.5 °F 12.4 °F 70% 30.06 in 10.0 mi West 10.4 mph - N/A Snow Light Snow
7:55 PM 20.7 °F 8.8 °F 12.7 °F 71% 30.06 in 10.0 mi West 11.5 mph - N/A   Overcast
8:15 PM 20.7 °F 9.5 °F 12.9 °F 72% 30.06 in 7.0 mi WSW 10.4 mph - N/A   Overcast
8:35 PM 20.3 °F 7.7 °F 12.0 °F 70% 30.06 in 7.0 mi WSW 12.7 mph - N/A   Overcast
8:55 PM 20.3 °F 7.7 °F 11.7 °F 69% 30.06 in 10.0 mi West 12.7 mph - N/A Snow Light Snow
9:15 PM 20.1 °F 6.9 °F 12.7 °F 73% 30.06 in 10.0 mi West 13.8 mph - N/A Snow Light Snow
9:35 PM 19.9 °F 7.9 °F 12.4 °F 72% 30.06 in 10.0 mi WSW 11.5 mph - N/A   Overcast
9:55 PM 19.8 °F 7.7 °F 12.2 °F 72% 30.05 in 7.0 mi West 11.5 mph - N/A Snow Light Snow
10:15 PM 19.6 °F 7.4 °F 12.6 °F 74% 30.04 in 10.0 mi WSW 11.5 mph - N/A Snow Light Snow
10:35 PM 19.6 °F 6.8 °F 12.4 °F 74% 30.04 in 5.0 mi WSW 12.7 mph - N/A Snow Light Snow
10:55 PM 19.0 °F 8.2 °F 10.9 °F 71% 30.02 in 7.0 mi WSW 9.2 mph - N/A   Overcast
11:15 PM 19.4 °F 6.0 °F 12.0 °F 73% 30.01 in 5.0 mi SW 13.8 mph - N/A Snow Light Snow
11:35 PM 19.2 °F 5.8 °F 11.8 °F 73% 30.01 in 10.0 mi SW 13.8 mph - N/A   Overcast
11:55 PM 18.3 °F 5.9 °F 10.8 °F 72% 30.00 in 10.0 mi SW 11.5 mph - N/A   Overcast